Location: Unspecified
(0.0000°N, 0.0000°E)
Time: 23:08:49
(UTC+00:00)

N. Korean satellite - Pass Details

Date: 21 April 2018
Orbit: 458 x 514 km, 97.2° (Epoch: 26 April)

Event Time Altitude Azimuth Distance (km) Brightness Sun altitude
Rises 18:48:10 0° 192° (SSW) 2,626 10.3 -12.1°
Reaches altitude 10° 18:50:36 10° 208° (SSW) 1,736 9.6 -12.7°
Maximum altitude 18:53:31 22° 259° (WSW) 1,167 9.4 -13.4°
Drops below altitude 10° 18:56:25 10° 310° (NW) 1,722 10.4 -14.1°
Sets 18:58:50 0° 326° (NW) 2,597 11.0 -14.7°
